Miscellaneous Local Product
Issued by NWS North Platte, NE

Home | Current Version | Previous Version | Text Only | Print | Product List | Glossary On
Versions: 1 2 3 4 5 6 7 8 9 10 11 12 13 14 15 16 17 18 19 20 21 22 23 24 25 26 27 28 29 30 31 32 33 34 35 36 37 38 39 40 41 42 43 44 45 46 47 48 49 50
074
AXUS43 KLBF 260110
MISLBF


WESTERN AND NORTH CENTRAL NEBRASKA HOURLY WEATHER ROUNDUP
NATIONAL WEATHER SERVICE NORTH PLATTE NE
800 PM CDT WED MAY 25 2016

NOTE: "FAIR" INDICATES FEW OR NO CLOUDS BELOW 12,000 FEET WITH NO
SIGNIFICANT WEATHER AND/OR OBSTRUCTIONS TO VISIBILITY.

NOTE: STATIONS NOT REPORTING VARIABLES SUCH AS SKY/WEATHER OR
PRESSURE ARE PROVIDED BY RAWS AND APRS NETWORKS AND ARE NOT UNDER
NATIONAL WEATHER SERVICE QUALITY CONTROL.

...OBSERVATIONS IN AND NEAR THE EASTERN PANHANDLE OF NEBRASKA...

CITY           SKY/WX    TMP DP  RH WIND       PRES   REMARKS
PINE RIDGE     CLOUDY    68  41  37 W8        29.88F
CHADRON        SUNNY     68  41  37 W3        29.90R
ALLIANCE       CLOUDY    65  44  46 NE9       29.91R
SIDNEY         SUNNY     63  44  50 NE6       29.94S
CRESCENT LAKE    N/A     62  48  61 S3G13       N/A
$$

...OBSERVATIONS IN NORTHERN NEBRASKA AND FAR SOUTHERN SOUTH DAKOTA...

CITY           SKY/WX    TMP DP  RH WIND       PRES   REMARKS
WINNER         FAIR      68  55  63 W12       29.81S
VALENTINE      MOSUNNY   65  44  46 NW20G37   29.85S
THEDFORD       CLOUDY    72  43  35 W15       29.89R
AINSWORTH      CLOUDY    69  46  44 NW7       29.85F
O`NEILL        CLOUDY    75  60  58 W16G32    29.81R
ORD            CLOUDY    76  60  57 S5        29.82R
BROKEN BOW     CLOUDY    71  49  45 N12       29.86R
BUTTE            N/A     64  58  81 N12         N/A
CHAMBERS         N/A     72  59  62 NW3         N/A
EWING            N/A     73  60  63 CALM        N/A
$$

...OBSERVATIONS IN SOUTHWEST NEBRASKA AND FAR NORTHEAST COLORADO...

CITY           SKY/WX    TMP DP  RH WIND       PRES   REMARKS
WRAY           FAIR      66  54  63 NE7       29.91F
HOLYOKE        FAIR      61  48  63 E9        29.97R
IMPERIAL       CLOUDY    56  49  77 N14       29.94F
OGALLALA       CLOUDY    63  48  59 N9        29.91R
NORTH PLATTE   TSTM      63  47  55 W38G62    29.95R SQUALL
MCCOOK         CLEAR     74  57  55 SE5       29.85S
LEXINGTON      CLOUDY    72  60  64 E3        29.85R
STAPLETON        N/A     68  45  42 NW6G13      N/A
GOTHENBURG       N/A     71  49  46 N8          N/A
CALLAWAY         N/A     72  49  44 NW13        N/A
$$

...OBSERVATIONS IN CENTRAL LINCOLN COUNTY AREA...

CITY           SKY/WX    TMP DP  RH WIND       PRES   REMARKS
N.P. AIRPORT   TSTM      63  47  55 W38G62    29.95R SQUALL
N.P. DOWNTOWN    N/A     60  51  73 N8G22       N/A
N.P. SOUTHEAST   N/A     61  51  69 NW17G32     N/A
N.P. HILLCREST   N/A     58  53  84 NW18G37     N/A
$$

...SOME OBSERVATIONS FROM AROUND THE REGION...

CITY           SKY/WX    TMP DP  RH WIND       PRES   REMARKS
DENVER         CLOUDY    65  44  46 E13       29.92F
LARAMIE        CLOUDY    55  31  39 NW16G25   30.04R
CHEYENNE       CLOUDY    61  43  51 W5        29.98R THUNDER
SCOTTSBLUFF    CLOUDY    70  37  29 S7        29.91R
RAPID CITY     CLOUDY    58  49  72 N10       29.88S
BISMARCK       CLOUDY    61  57  87 CALM      29.75S
PIERRE         SUNNY     69  53  56 W10       29.79R
SIOUX FALLS    PTCLDY    74  59  59 W3        29.78S
OMAHA          MOCLDY    76  67  73 SE7       29.82S
GRAND ISLAND   MOCLDY    73  64  73 CALM      29.83S
KANSAS CITY    MOCLDY    76  67  73 S8        29.86R
WICHITA        PTCLDY    84  72  67 S20G25    29.78S
OKLAHOMA CITY  PTCLDY    81  74  79 S13       29.85S
DALLAS         CLOUDY    84  74  71 S15       29.91R HX  91
AMARILLO       CLEAR     81  33  17 SW12      29.90F
DODGE CITY     CLEAR     77  65  66 NE8       29.84F
HAYS           CLEAR     72  64  78 NE3       29.83S
GOODLAND       SUNNY     75  50  41 SE9       29.87F
$$




USA.gov is the U.S. government's official web portal to all federal, state and local government web resources and services.